Location: Unspecified
(0.0000°N, 0.0000°E)
Time: 08:34:12
(UTC+00:00)

NIMBUS 2 DEB - Pass Details

Date: 18 December 2025
Orbit: 956 x 1029 km, 100.4° (Epoch: 13 January)

Event Time Altitude Azimuth Distance (km) Brightness Sun altitude
Rises 02:29:26 0° 152° (SSE) 3,648 ? -46.1°
Reaches altitude 10° 02:32:00 10° 144° (SE) 2,707 ? -45.6°
Enters shadow 02:33:48 20° 135° (SE) 2,102 ? -45.2°
